RKPC

Jeju

Airport
ICAO code
RKPC
Summary
ICAO Region
APAC
ICAO Territory
Location

Jeju,

Coordinates
33° 30' 41" N , 126° 29' 35" E
KCC
Metar
RKPC 150000Z 25004KT 200V280 9999 -RA BKN050 BKN080 21/17 Q1008 WS ALL RWY NOSIG

Description

Jeju International Airport serves many mainland destinations in South Korea, as well as international destinations in China, Japan, and Taiwan.

Climatology

Warm continental climate/Humid continental climate/Humid subtropical climate (Köppen climate classification Dwa/Cwa)

Runways

Designator Length Width Surface Rops
13/31 1910 45 ASP Yes/Yes
6/24 3000 45 ASP Yes/Yes

Airport map

Aerial View

SKYbrary Partners:

Safety knowledge contributed by: